Wind_Speed
8 7 3 4 3 4 3 5 2 2 1 2 1 3 4 3 3 4 2 18 12 22 21 18 16 13 11 10 8 6 5 7 6 6 5 6 6 6 6 5 4 4 5 4 6 6 7 6 4
6 2 3 2 4 2 4 4 4 4 2 3 2 2 2 1 1 3 7 20 13 22 20 18 16 13 11 8 7 7 8 7 6 6 6 6 6 6 6 6 6 5 6 6 7 7 5 9 6
3 2 3 4 3 4 4 4 4 3 4 2 1 4 4 1 1 8 2 20 21 21 20 19 16 13 10 8 8 8 8 7 7 6 6 6 5 6 6 7 8 8 7 7 7 7 7 8 9
2 5 4 4 4 6 5 3 3 2 4 1 2 0 1 1 3 8 15 22 22 20 19 18 15 12 10 9 9 9 8 7 6 6 5 5 6 7 7 8 9 9 9 9 9 9 8 9 10
3 3 3 1 4 4 5 4 5 3 2 2 1 2 1 4 4 13 22 22 20 19 18 16 13 11 10 9 9 9 8 7 6 4 4 6 6 6 7 8 9 7 9 10 10 10 11 11 11
3 3 3 3 4 4 5 3 2 1 2 2 2 4 2 1 13 20 22 21 18 19 18 16 13 10 9 9 8 8 7 5 3 3 4 5 6 6 7 6 8 10 9 10 10 10 11 11 11
5 4 4 3 4 5 3 2 2 2 2 4 4 3 1 3 13 21 22 19 18 18 18 17 14 11 10 9 8 7 4 3 2 3 4 6 6 7 6 8 8 8 9 9 9 10 10 11 12
5 3 5 4 3 5 1 3 2 3 4 2 6 4 5 7 18 21 21 20 19 17 16 15 13 11 10 8 5 4 3 2 2 2 4 6 8 8 8 8 9 8 8 9 11 11 10 10 11
4 3 3 4 6 4 1 2 1 2 2 3 2 3 2 19 23 23 20 18 19 18 16 15 13 11 9 8 6 5 3 2 1 2 5 9 10 10 10 8 8 9 10 10 10 11 12 12 11
4 3 8 4 3 3 1 1 3 3 3 3 3 1 6 26 27 22 20 19 22 21 19 16 14 13 12 9 7 6 4 3 1 4 7 10 12 10 8 8 8 8 9 9 9 10 10 9 11
4 6 3 3 2 1 2 3 1 1 5 9 7 5 7 10 14 17 19 25 29 23 19 17 15 13 12 10 8 7 5 3 2 4 7 10 11 9 9 9 9 9 9 10 10 12 12 12 10
3 6 4 4 1 0 3 2 5 7 9 2 7 5 7 9 9 17 20 24 24 23 20 17 15 13 11 10 8 6 5 3 3 5 7 9 10 9 8 9 9 10 11 12 12 12 12 12 10
3 3 4 4 5 5 2 7 6 11 12 9 5 3 9 8 12 17 22 22 22 22 20 19 17 14 12 10 8 7 6 3 3 4 6 8 9 9 8 8 9 11 14 13 13 13 12 10 8
2 3 6 5 3 4 4 3 1 7 1 3 7 10 9 11 16 16 18 22 23 23 21 20 18 16 14 12 9 7 5 3 3 3 4 7 9 9 7 10 11 13 16 15 13 14 15 9 6
2 5 6 6 2 5 3 5 9 9 7 7 3 6 8 11 14 20 26 25 25 25 23 21 19 17 15 12 9 7 4 3 2 2 3 6 8 7 9 11 14 16 15 14 13 15 15 8 7
1 2 3 1 6 2 4 8 2 3 4 7 7 6 6 5 11 19 21 22 22 22 24 23 20 19 16 12 10 7 4 1 1 2 4 4 5 6 9 12 14 15 13 15 14 13 14 10 9
1 3 5 7 7 3 4 7 4 2 5 7 8 8 7 7 5 12 15 19 22 23 25 24 21 19 16 13 10 6 3 1 1 1 3 3 4 6 9 11 12 13 12 14 15 11 10 8 9
6 4 5 5 2 2 2 12 10 9 6 11 11 9 8 8 6 7 13 16 20 23 26 24 21 18 15 12 9 6 4 3 1 1 3 4 5 7 8 10 10 12 12 14 14 10 7 9 10
3 3 4 3 1 1 6 9 14 11 6 10 10 8 7 2 3 9 14 19 22 24 26 24 22 18 15 13 9 6 5 4 2 2 2 2 4 6 8 10 10 13 13 13 13 3 5 7 8
2 0 4 3 1 2 5 14 11 8 4 3 7 2 6 5 5 8 16 21 24 27 25 22 19 17 15 11 7 3 6 5 4 3 2 2 3 5 7 9 11 13 14 10 10 4 2 5 8
5 5 4 2 2 1 6 8 4 1 2 3 6 4 4 7 8 6 9 17 22 24 22 20 18 16 13 10 8 6 6 5 5 4 3 1 2 4 6 9 12 13 13 10 10 7 2 1 6
5 8 6 2 2 4 2 5 5 1 2 2 3 4 5 6 5 5 7 14 21 20 17 17 17 15 12 10 8 7 6 5 6 5 3 2 1 3 6 9 11 12 13 9 8 7 2 1 3
5 4 6 2 3 2 2 1 7 3 4 5 6 6 6 6 7 7 9 18 17 16 17 17 15 14 12 9 7 7 6 6 6 4 3 2 1 2 5 9 9 11 11 9 5 3 2 3 2
9 7 7 5 3 2 6 6 6 5 4 3 3 5 7 7 6 6 12 15 15 15 16 16 15 13 10 9 8 7 7 7 7 5 4 3 1 1 5 7 8 10 11 10 4 3 3 4 7
4 6 3 3 2 6 3 2 8 3 3 2 6 7 7 7 7 7 8 12 16 18 17 16 15 13 11 9 8 8 8 8 7 5 5 4 2 1 3 6 8 11 10 8 3 3 1 4 8
6 7 6 8 4 3 3 7 6 4 1 1 1 6 6 7 6 7 8 14 18 18 18 17 16 13 12 10 9 8 8 8 8 7 6 5 4 1 3 4 5 8 8 7 3 4 4 5 10
6 6 5 7 2 3 4 6 8 3 2 2 3 5 6 7 7 8 9 16 18 18 19 18 16 14 13 11 10 10 9 9 9 7 7 7 4 2 2 3 3 6 6 5 3 4 5 9 13
3 7 3 2 4 4 4 5 5 6 8 5 5 6 5 5 6 6 8 17 19 19 18 17 16 15 13 12 12 11 10 9 8 8 8 8 5 3 2 1 1 3 3 3 2 4 6 9 11
3 3 3 5 5 6 3 6 6 8 9 9 7 5 3 6 6 6 7 16 19 17 18 18 18 17 16 14 12 12 11 11 10 9 8 8 6 4 3 2 0 1 1 1 1 4 7 7 11
2 5 6 5 5 2 3 6 3 6 8 8 7 6 4 5 3 5 7 11 14 16 17 19 19 19 17 15 14 13 11 11 11 11 9 9 7 5 4 3 2 2 1 3 4 5 6 8 10
Wind_Direction
322 321 320 40 54 66 261 261 266 244 234 240 276 185 163 123 158 209 154 165 161 169 167 173 167 155 151 163 167 153 123 99 93 87 75 63 53 45 29 0 312 296 285 299 314 321 333 345 313
331 334 57 77 96 79 265 262 242 246 224 122 130 72 80 166 94 108 133 186 175 165 164 167 167 160 165 163 155 123 109 105 95 82 67 58 50 38 27 11 358 339 328 317 318 316 292 309 333
326 32 88 100 113 185 209 225 214 279 311 234 58 49 131 182 165 170 209 169 170 166 171 173 169 161 161 148 132 123 123 113 103 86 67 51 34 23 12 3 356 348 336 335 331 305 259 277 282
222 21 35 97 219 249 214 280 211 282 309 279 138 28 30 19 168 171 160 160 164 166 171 173 169 160 156 140 135 134 126 119 105 79 58 32 15 6 2 358 352 346 345 340 331 321 306 284 272
48 57 76 118 252 263 247 265 165 214 262 234 119 224 274 4 183 165 162 164 164 166 171 171 166 158 146 146 140 134 129 113 94 75 38 17 7 6 2 359 354 349 338 331 324 318 310 303 294
33 98 77 213 243 253 269 254 221 160 276 261 99 136 249 152 149 159 165 167 169 164 167 171 169 163 155 146 142 138 128 115 100 60 35 22 15 4 351 341 340 329 321 321 316 309 303 299 296
128 96 204 182 260 300 217 326 191 196 207 231 154 158 300 207 171 166 169 168 167 169 171 173 174 169 161 162 159 144 137 132 83 49 16 9 350 330 320 313 318 319 316 314 316 311 303 296 293
111 94 155 241 206 260 233 331 185 189 246 281 166 205 232 202 173 170 170 171 171 173 176 178 177 172 170 167 166 159 155 120 71 6 2 349 338 326 321 320 320 329 324 318 317 314 309 306 284
130 63 210 233 164 237 13 33 205 293 251 317 215 167 287 159 162 163 163 168 173 177 181 181 180 174 174 166 167 169 160 157 306 330 335 335 337 334 324 323 317 317 318 322 324 322 316 305 295
101 141 219 215 221 245 246 170 311 352 323 269 264 92 138 157 162 162 171 176 183 184 184 186 183 179 175 168 162 167 182 207 261 319 328 334 338 338 337 333 337 337 337 332 329 327 322 317 312
157 202 218 266 228 226 289 287 274 231 270 229 224 197 155 154 166 175 186 187 191 191 188 188 188 185 177 173 172 178 195 207 262 316 327 335 339 343 344 347 345 348 346 342 332 322 320 315 314
172 237 218 286 346 85 257 315 285 207 231 214 222 174 162 173 184 190 193 195 193 193 194 191 190 192 183 182 183 191 203 207 281 317 328 340 350 358 0 0 2 355 347 336 331 327 322 318 299
224 259 184 245 294 266 307 248 238 264 251 258 236 179 200 199 206 205 206 204 197 193 195 194 190 188 189 189 194 203 194 223 278 319 339 357 5 4 8 6 358 347 340 334 334 332 327 315 304
233 262 286 275 227 262 233 246 84 271 329 269 216 228 217 211 210 207 206 209 203 200 197 190 188 185 185 189 196 200 211 254 290 333 10 17 8 12 25 6 357 345 338 336 335 341 338 332 337
337 319 314 238 213 221 168 277 231 254 296 281 228 243 226 226 213 209 211 210 206 204 195 190 185 184 186 187 194 206 223 249 295 26 41 22 18 28 8 2 353 349 350 354 357 353 340 336 329
9 37 321 230 145 193 138 271 268 357 218 259 274 268 256 239 226 221 216 215 207 201 191 184 182 181 185 186 194 196 214 236 342 49 35 31 47 21 17 1 1 0 3 2 357 351 348 348 2
356 223 217 309 191 127 172 267 262 89 50 299 276 265 278 293 244 220 207 206 198 196 183 177 178 180 180 181 183 185 195 169 133 40 33 44 50 34 16 8 6 4 358 355 359 4 16 17 33
194 216 246 250 219 196 218 265 276 273 256 253 265 272 274 271 254 194 178 178 180 181 176 173 173 177 175 176 175 172 169 154 147 30 60 34 31 18 17 9 2 2 358 353 4 6 25 61 60
147 196 226 226 167 241 239 268 279 280 234 276 274 262 245 182 31 135 146 155 157 161 165 169 171 173 180 175 170 179 186 174 177 128 100 64 31 30 15 8 0 353 351 348 350 344 66 56 12
28 190 256 279 253 202 323 289 262 269 247 281 291 251 148 123 100 101 136 150 156 160 166 168 175 177 181 186 187 192 178 186 198 177 133 62 13 32 15 5 0 358 354 358 352 1 338 22 13
220 195 215 216 346 290 328 293 329 52 99 27 36 86 108 146 137 128 131 151 157 163 169 171 177 181 183 189 184 168 174 180 196 203 173 86 5 18 6 6 360 356 356 359 333 353 333 357 43
222 200 177 199 90 232 24 275 301 325 265 46 83 103 132 134 125 138 142 153 166 170 173 175 177 180 184 189 188 188 203 199 205 199 189 144 16 4 360 5 1 1 359 6 339 352 326 249 146
224 127 148 110 106 9 263 76 271 323 241 197 204 196 180 177 163 161 164 169 173 174 176 177 178 180 183 189 195 191 198 208 203 199 199 183 176 25 357 1 5 358 0 357 351 345 91 78 133
154 84 52 57 72 333 218 165 272 203 208 158 172 193 188 181 176 163 173 171 172 177 179 180 182 185 191 197 204 206 200 195 204 207 220 208 213 40 348 2 3 356 354 346 346 290 264 49 121
106 102 22 357 7 223 18 153 248 235 205 194 188 195 184 175 171 167 168 175 177 181 182 183 187 192 199 206 211 208 205 205 211 213 232 241 234 327 343 359 11 5 360 346 27 160 171 75 112
184 163 158 194 194 223 114 224 248 210 271 143 331 165 155 172 180 184 187 187 188 188 187 190 194 199 203 209 215 210 209 213 217 218 230 245 244 273 321 359 15 3 7 1 60 139 147 128 122
185 197 150 106 45 68 211 281 289 184 159 139 144 138 170 183 189 190 188 197 196 196 197 200 203 208 209 209 213 217 212 211 216 227 236 248 249 223 294 342 20 8 23 12 44 124 138 147 121
162 158 92 351 136 228 267 276 238 215 203 172 165 190 198 192 190 190 193 201 205 206 207 209 213 218 218 214 215 218 216 213 217 224 239 247 240 234 250 294 20 17 20 30 53 150 144 144 135
153 190 193 131 158 168 172 250 216 206 181 177 175 160 155 189 190 204 205 207 208 213 215 216 215 219 219 218 217 218 218 213 217 227 236 240 240 233 241 260 209 100 332 30 118 154 166 150 143
303 207 174 153 226 232 155 262 327 200 166 153 161 152 124 112 127 199 201 208 207 215 219 220 219 220 224 221 221 221 220 217 215 226 232 241 247 240 235 230 204 159 191 238 219 183 195 179 162
Height
787 786 786 787 814 823 820 807 790 784 783 773 770 773 774 776 781 801 779 781 783 785 790 793 795 797 798 798 797 799 800 802 802 801 800 800 799 799 798 797 796 796 795 795 795 795 793 792 792
787 787 787 801 823 829 820 802 793 783 775 773 773 774 775 779 776 779 780 782 784 787 791 794 796 797 797 799 800 801 802 802 803 803 803 802 801 800 799 798 797 796 795 794 795 794 793 793 792
787 787 796 814 833 825 814 791 786 779 776 775 776 774 777 778 776 777 778 781 785 788 790 793 795 797 798 800 801 802 802 802 802 803 803 802 801 800 799 798 797 796 795 794 793 793 793 793 791
788 789 803 815 816 805 797 782 783 781 776 773 774 778 777 776 775 776 778 781 785 789 792 794 795 798 799 801 802 802 802 802 802 804 803 802 802 801 800 799 798 797 796 795 793 792 791 791 790
789 799 817 816 810 798 792 782 783 781 779 775 774 780 779 777 776 776 779 783 787 790 793 796 798 799 801 801 802 803 803 804 804 803 803 803 802 801 800 799 798 796 795 794 793 791 790 789 788
800 804 821 818 808 793 787 780 779 779 779 776 777 780 780 778 777 778 780 783 787 790 793 796 798 800 802 803 804 804 805 805 804 804 803 802 801 801 800 799 797 796 794 792 791 790 789 787 786
800 811 814 810 804 794 782 779 779 779 780 777 773 781 781 779 779 780 782 786 788 790 792 794 796 799 802 804 805 806 806 805 805 805 803 803 802 800 798 797 796 794 793 791 789 787 786 785 785
799 806 809 806 805 793 779 778 775 778 777 771 771 782 779 774 778 781 784 786 789 791 794 796 798 800 802 804 807 807 806 807 806 805 804 802 801 800 798 796 794 794 792 790 788 787 785 783 780
793 812 815 798 801 786 779 780 775 774 776 773 769 770 769 771 777 781 785 788 790 792 794 796 798 801 802 803 804 806 807 806 806 806 804 803 801 799 798 796 794 792 790 789 787 786 784 782 780
799 815 802 790 784 782 781 781 780 779 777 774 770 770 770 771 775 779 782 785 788 790 792 795 796 797 799 801 803 804 805 806 805 806 805 804 802 800 798 797 795 793 791 788 786 784 782 780 778
798 803 793 783 781 782 783 783 781 781 782 776 771 768 770 772 775 778 781 782 783 788 792 795 797 798 799 801 802 802 803 804 805 805 804 802 800 799 798 798 796 793 790 788 785 783 781 779 777
792 788 787 784 781 783 784 781 782 782 771 764 766 766 769 772 773 775 778 781 784 788 791 794 797 801 802 802 803 803 803 804 804 804 802 801 800 797 797 796 795 793 790 787 784 781 778 776 775
790 784 783 782 784 785 784 784 783 776 765 766 767 768 770 771 771 772 776 780 783 786 790 793 796 799 803 804 805 804 803 803 802 801 802 801 800 798 796 795 794 793 791 787 783 780 776 773 771
785 785 784 781 781 782 783 782 779 763 760 762 765 766 767 768 768 771 774 776 780 783 788 792 795 798 800 803 804 804 804 803 802 801 801 800 799 798 796 795 793 793 791 787 783 780 778 774 771
784 789 785 779 777 781 780 782 781 763 763 763 761 762 762 763 765 764 768 772 776 780 785 790 794 796 798 800 802 804 804 803 803 801 801 801 801 799 798 796 794 792 791 787 784 782 779 776 773
788 789 793 774 779 778 779 781 760 759 763 761 761 762 761 760 760 761 765 770 775 779 783 787 791 795 797 798 800 801 803 803 804 802 801 800 800 798 798 797 795 793 791 788 784 781 779 777 774
796 800 798 781 778 779 782 776 761 760 762 765 762 760 760 759 759 759 762 766 771 776 781 786 790 793 796 797 798 800 802 802 803 803 801 800 798 797 797 797 796 794 791 788 785 783 778 778 776
796 798 795 791 777 779 782 779 768 762 764 762 760 760 761 761 759 758 760 765 770 775 781 786 791 795 797 798 799 799 801 802 803 804 802 804 802 801 798 797 796 793 791 789 786 785 782 779 778
787 789 785 778 777 779 781 778 765 757 761 760 758 756 757 757 760 761 762 765 770 777 782 786 791 794 797 798 799 799 800 801 802 801 802 801 800 798 798 797 796 794 792 790 787 785 783 781 780
786 786 785 779 778 780 780 772 758 755 754 755 755 751 757 761 763 765 766 768 771 776 781 786 790 793 795 796 798 800 800 800 801 801 801 801 802 797 798 796 795 793 792 791 789 787 785 785 783
792 791 785 782 780 780 785 772 755 749 750 754 758 757 758 761 765 767 770 772 774 778 782 785 789 792 794 795 796 797 799 800 799 801 801 801 801 799 798 797 796 794 793 792 790 788 787 786 786
792 783 781 781 787 797 786 794 762 752 750 755 757 761 762 764 766 767 770 773 776 780 783 786 788 791 793 795 796 796 798 800 799 800 800 799 799 799 798 798 796 795 794 792 791 789 787 786 787
780 779 783 784 797 793 790 797 767 757 750 752 757 760 763 765 766 768 769 772 777 781 783 786 788 790 792 795 796 796 797 799 801 800 801 800 798 797 799 798 796 795 794 793 793 790 789 788 790
781 785 796 808 809 835 791 790 775 759 748 748 752 758 761 764 766 769 770 773 776 780 783 786 788 791 793 795 796 797 796 798 800 801 801 801 800 796 798 798 797 796 794 794 794 792 792 791 790
774 785 840 831 853 812 798 795 769 747 744 745 749 755 760 764 767 769 771 772 775 778 781 784 787 790 793 796 796 796 796 797 799 800 802 802 800 798 797 798 797 797 795 794 794 794 794 792 793
778 772 794 798 819 796 797 788 759 750 747 746 748 752 759 763 765 768 770 772 774 777 780 783 785 788 791 794 796 795 796 797 799 799 800 801 800 798 798 797 796 796 796 795 795 795 796 796 795
771 777 772 809 852 811 786 771 751 749 750 749 751 755 759 762 764 765 769 771 773 776 778 781 784 787 788 791 793 795 795 796 797 799 800 801 801 798 798 798 797 796 796 797 797 797 797 798 798
760 764 780 803 811 795 790 774 753 752 752 751 752 754 756 759 762 764 765 767 771 774 777 780 783 784 787 789 791 793 793 795 797 797 799 800 799 799 799 797 798 797 796 797 799 800 800 800 799
767 771 761 764 776 781 799 764 742 740 746 750 752 752 753 757 760 763 764 764 767 772 775 778 779 782 784 786 789 791 791 792 795 797 797 798 798 798 799 798 797 797 797 797 799 802 802 803 803
758 748 748 753 781 791 779 754 741 740 744 748 752 753 756 757 759 761 762 764 765 768 772 775 777 779 782 784 787 788 789 791 792 795 796 798 798 797 798 798 798 797 798 798 798 802 804 804 806